| time (UTC) | temp C | wind direction | speed KPH | gust KPH | rain 1hr cm | rain 24hr cm | rain mn cm | humidity % | barometer mb |
| 20260509034536 | 20 | 266 | 17.7 | 22.5 | 0.00 | 0.00 | 0.00 | 34 | 1024.1 |
| 20260509033535 | 20 | 261 | 9.7 | 14.5 | 0.00 | 0.00 | 0.00 | 34 | 1023.6 |
| 20260509032535 | 20 | 282 | 4.8 | 16.1 | 0.00 | 0.00 | 0.00 | 34 | 1023.7 |
| 20260509031530 | 20 | 263 | 14.5 | 22.5 | 0.00 | 0.00 | 0.00 | 34 | 1023.3 |
| 20260509030525 | 20 | 252 | 17.7 | 27.4 | 0.00 | 0.00 | 0.00 | 34 | 1023.4 |
| 20260509025523 | 21 | 283 | 19.3 | 27.4 | 0.00 | 0.00 | 0.00 | 33 | 1023.3 |
| 20260509024520 | 21 | 288 | 14.5 | 25.7 | 0.00 | 0.00 | 0.00 | 33 | 1023.1 |
| 20260509023521 | 21 | 267 | 16.1 | 22.5 | 0.00 | 0.00 | 0.00 | 32 | 1022.9 |
| 20260509022519 | 21 | 242 | 22.5 | 29.0 | 0.00 | 0.00 | 0.00 | 32 | 1022.7 |
| 20260509021514 | 21 | 204 | 12.9 | 22.5 | 0.00 | 0.00 | 0.00 | 31 | 1022.5 |
| 20260509020509 | 22 | 274 | 17.7 | 22.5 | 0.00 | 0.00 | 0.00 | 30 | 1022.4 |
| 20260509015505 | 22 | 266 | 14.5 | 24.1 | 0.00 | 0.00 | 0.00 | 29 | 1022.5 |
| 20260509014504 | 22 | 271 | 22.5 | 29.0 | 0.00 | 0.00 | 0.00 | 28 | 1022.2 |
| 20260509013503 | 22 | 271 | 24.1 | 29.0 | 0.00 | 0.00 | 0.00 | 27 | 1022.2 |
| 20260509012501 | 23 | 281 | 19.3 | 33.8 | 0.00 | 0.00 | 0.00 | 26 | 1022.2 |
| 20260509011456 | 23 | 252 | 17.7 | 27.4 | 0.00 | 0.00 | 0.00 | 25 | 1022.0 |
| 20260509010451 | 23 | 240 | 17.7 | 27.4 | 0.00 | 0.00 | 0.00 | 24 | 1022.0 |
| 20260509005446 | 24 | 269 | 17.7 | 25.7 | 0.00 | 0.00 | 0.00 | 24 | 1021.6 |
| 20260509004442 | 24 | 248 | 22.5 | 29.0 | 0.00 | 0.00 | 0.00 | 23 | 1021.5 |
| 20260509003438 | 24 | 265 | 14.5 | 25.7 | 0.00 | 0.00 | 0.00 | 21 | 1021.6 |
| 20260509002438 | 25 | 264 | 17.7 | 29.0 | 0.00 | 0.00 | 0.00 | 22 | 1021.6 |
| 20260509001438 | 25 | 209 | 16.1 | 35.4 | 0.00 | 0.00 | 0.00 | 21 | 1021.4 |
| 20260509000433 | 25 | 255 | 24.1 | 37.0 | 0.00 | 0.00 | 0.00 | 19 | 1021.4 |
| 20260508235432 | 25 | 229 | 16.1 | 27.4 | 0.00 | 0.00 | 0.00 | 19 | 1021.4 |
| 20260508234431 | 25 | 258 | 20.9 | 35.4 | 0.00 | 0.00 | 0.00 | 20 | 1021.3 |
| 20260508233428 | 25 | 276 | 29.0 | 33.8 | 0.00 | 0.00 | 0.00 | 20 | 1021.4 |
| 20260508232427 | 25 | 269 | 20.9 | 32.2 | 0.00 | 0.00 | 0.00 | 21 | 1021.4 |
| 20260508231427 | 25 | 257 | 17.7 | 29.0 | 0.00 | 0.00 | 0.00 | 18 | 1021.4 |
| 20260508230426 | 26 | 251 | 17.7 | 33.8 | 0.00 | 0.00 | 0.00 | 19 | 1021.3 |
| 20260508225426 | 26 | 277 | 14.5 | 29.0 | 0.00 | 0.00 | 0.00 | 20 | 1021.1 |
| 20260508224421 | 25 | 237 | 16.1 | 32.2 | 0.00 | 0.00 | 0.00 | 20 | 1021.4 |
| 20260508223416 | 26 | 231 | 12.9 | 22.5 | 0.00 | 0.00 | 0.00 | 19 | 1021.4 |
| 20260508222416 | 26 | 256 | 20.9 | 37.0 | 0.00 | 0.00 | 0.00 | 19 | 1021.1 |
| 20260508221414 | 26 | 230 | 25.7 | 29.0 | 0.00 | 0.00 | 0.00 | 20 | 1021.5 |
| 20260508220413 | 25 | 218 | 20.9 | 29.0 | 0.00 | 0.00 | 0.00 | 20 | 1021.9 |
| 20260508215413 | 26 | 245 | 17.7 | 32.2 | 0.00 | 0.00 | 0.00 | 21 | 1021.3 |
| 20260508214412 | 26 | 282 | 17.7 | 35.4 | 0.00 | 0.00 | 0.00 | 20 | 1021.6 |
| 20260508213412 | 26 | 217 | 11.3 | 33.8 | 0.00 | 0.00 | 0.00 | 21 | 1021.8 |
| 20260508212410 | 26 | 268 | 22.5 | 29.0 | 0.00 | 0.00 | 0.00 | 21 | 1021.9 |
| 20260508211407 | 26 | 250 | 24.1 | 40.2 | 0.00 | 0.00 | 0.00 | 23 | 1022.0 |
| 20260508210407 | 26 | 260 | 22.5 | 29.0 | 0.00 | 0.00 | 0.00 | 21 | 1022.2 |
| 20260508205407 | 25 | 259 | 24.1 | 32.2 | 0.00 | 0.00 | 0.00 | 22 | 1022.4 |
| 20260508204406 | 25 | 235 | 25.7 | 27.4 | 0.00 | 0.00 | 0.00 | 23 | 1022.5 |
| 20260508203404 | 25 | 268 | 14.5 | 32.2 | 0.00 | 0.00 | 0.00 | 23 | 1022.3 |
| 20260508202403 | 25 | 262 | 22.5 | 32.2 | 0.00 | 0.00 | 0.00 | 24 | 1023.2 |
| 20260508201402 | 24 | 232 | 12.9 | 27.4 | 0.00 | 0.00 | 0.00 | 24 | 1022.8 |
| 20260508200402 | 25 | 246 | 14.5 | 35.4 | 0.00 | 0.00 | 0.00 | 24 | 1023.1 |
| 20260508195400 | 25 | 249 | 20.9 | 29.0 | 0.00 | 0.00 | 0.00 | 24 | 1023.4 |
| 20260508194359 | 25 | 248 | 22.5 | 29.0 | 0.00 | 0.00 | 0.00 | 24 | 1023.2 |
| 20260508193359 | 25 | 246 | 8.0 | 22.5 | 0.00 | 0.00 | 0.00 | 25 | 1023.4 |
| 20260508192358 | 24 | 260 | 4.8 | 16.1 | 0.00 | 0.00 | 0.00 | 25 | 1023.7 |
| 20260508191353 | 25 | 302 | 8.0 | 14.5 | 0.00 | 0.00 | 0.00 | 24 | 1023.4 |
| 20260508190352 | 24 | 217 | 14.5 | 24.1 | 0.00 | 0.00 | 0.00 | 25 | 1023.8 |
| 20260508185352 | 24 | 226 | 24.1 | 38.6 | 0.00 | 0.00 | 0.00 | 25 | 1023.8 |
| 20260508184353 | 24 | 291 | 17.7 | 29.0 | 0.00 | 0.00 | 0.00 | 24 | 1024.3 |
| 20260508183351 | 23 | 249 | 11.3 | 27.4 | 0.00 | 0.00 | 0.00 | 25 | 1024.5 |
| 20260508182350 | 23 | 182 | 8.0 | 17.7 | 0.00 | 0.00 | 0.00 | 25 | 1024.6 |
| 20260508181349 | 23 | 250 | 27.4 | 33.8 | 0.00 | 0.00 | 0.00 | 25 | 1024.7 |
| 20260508180348 | 23 | 261 | 4.8 | 17.7 | 0.00 | 0.00 | 0.00 | 26 | 1024.6 |
| 20260508175347 | 23 | 290 | 16.1 | 25.7 | 0.00 | 0.00 | 0.00 | 26 | 1024.7 |
| 20260508174342 | 23 | 230 | 19.3 | 25.7 | 0.00 | 0.00 | 0.00 | 26 | 1025.0 |
| 20260508173342 | 23 | 248 | 12.9 | 17.7 | 0.00 | 0.00 | 0.00 | 26 | 1024.8 |
| 20260508172341 | 23 | 274 | 14.5 | 33.8 | 0.00 | 0.00 | 0.00 | 27 | 1025.2 |
| 20260508171339 | 22 | 250 | 11.3 | 16.1 | 0.00 | 0.00 | 0.00 | 27 | 1025.2 |
| 20260508170334 | 23 | 260 | 14.5 | 22.5 | 0.00 | 0.00 | 0.00 | 26 | 1025.2 |
| 20260508165333 | 22 | 247 | 6.4 | 12.9 | 0.00 | 0.00 | 0.00 | 26 | 1025.3 |
| 20260508164331 | 22 | 279 | 9.7 | 14.5 | 0.00 | 0.00 | 0.00 | 26 | 1025.3 |
| 20260508163327 | 22 | 256 | 4.8 | 16.1 | 0.00 | 0.00 | 0.00 | 27 | 1025.6 |
| 20260508162325 | 23 | 237 | 8.0 | 9.7 | 0.00 | 0.00 | 0.00 | 25 | 1025.9 |
| 20260508161326 | 22 | 209 | 0.0 | 1.6 | 0.00 | 0.00 | 0.00 | 28 | 1025.9 |
| 20260508160322 | 21 | 81 | 8.0 | 16.1 | 0.00 | 0.00 | 0.00 | 29 | 1025.9 |
| 20260508155321 | 21 | 104 | 8.0 | 9.7 | 0.00 | 0.00 | 0.00 | 29 | 1025.9 |
| 20260508154320 | 21 | 67 | 14.5 | 16.1 | 0.00 | 0.00 | 0.00 | 30 | 1026.0 |
| 20260508153320 | 21 | 135 | 3.2 | 3.2 | 0.00 | 0.00 | 0.00 | 28 | 1025.9 |
| 20260508152318 | 21 | 120 | 11.3 | 12.9 | 0.00 | 0.00 | 0.00 | 29 | 1026.0 |
| 20260508151317 | 22 | 209 | 0.0 | 0.0 | 0.00 | 0.00 | 0.00 | 29 | 1026.0 |
| 20260508150316 | 20 | 224 | 0.0 | 1.6 | 0.00 | 0.00 | 0.00 | 30 | 1026.1 |
| 20260508145314 | 20 | 199 | 0.0 | 3.2 | 0.00 | 0.00 | 0.00 | 30 | 1025.9 |
| 20260508144309 | 20 | 241 | 0.0 | 0.0 | 0.00 | 0.00 | 0.00 | 30 | 1025.9 |
| 20260508143309 | 21 | 202 | 0.0 | 1.6 | 0.00 | 0.00 | 0.00 | 30 | 1025.9 |
| 20260508142309 | 20 | 208 | 0.0 | 0.0 | 0.00 | 0.00 | 0.00 | 30 | 1026.1 |
| 20260508141308 | 19 | 187 | 0.0 | 0.0 | 0.00 | 0.00 | 0.00 | 33 | 1025.7 |
| 20260508140308 | 18 | 152 | 0.0 | 1.6 | 0.00 | 0.00 | 0.00 | 35 | 1026.0 |
| 20260508135306 | 18 | 155 | 0.0 | 1.6 | 0.00 | 0.00 | 0.00 | 35 | 1025.9 |
| 20260508134305 | 18 | 170 | 0.0 | 3.2 | 0.00 | 0.00 | 0.00 | 36 | 1026.1 |
| 20260508133305 | 17 | 110 | 0.0 | 3.2 | 0.00 | 0.00 | 0.00 | 37 | 1025.9 |
| 20260508132300 | 17 | 137 | 1.6 | 3.2 | 0.00 | 0.00 | 0.00 | 38 | 1025.7 |
| 20260508131257 | 17 | 106 | 0.0 | 4.8 | 0.00 | 0.00 | 0.00 | 38 | 1025.6 |
| 20260508130257 | 17 | 180 | 0.0 | 0.0 | 0.00 | 0.00 | 0.00 | 38 | 1025.9 |
| 20260508125255 | 17 | 270 | 0.0 | 0.0 | 0.00 | 0.00 | 0.00 | 38 | 1025.6 |
| 20260508124250 | 16 | 134 | 0.0 | 0.0 | 0.00 | 0.00 | 0.00 | 40 | 1025.5 |
| 20260508123246 | 16 | 169 | 0.0 | 0.0 | 0.00 | 0.00 | 0.00 | 40 | 1025.5 |
| 20260508122245 | 16 | 205 | 0.0 | 0.0 | 0.00 | 0.00 | 0.00 | 40 | 1025.3 |
| 20260508121241 | 16 | 197 | 0.0 | 0.0 | 0.00 | 0.00 | 0.00 | 40 | 1025.3 |
| 20260508120236 | 16 | 177 | 0.0 | 0.0 | 0.00 | 0.00 | 0.00 | 40 | 1025.0 |
| 20260508115231 | 16 | 202 | 0.0 | 0.0 | 0.00 | 0.00 | 0.00 | 39 | 1025.2 |
| 20260508114230 | 16 | 178 | 0.0 | 3.2 | 0.00 | 0.00 | 0.00 | 39 | 1025.0 |
| 20260508113225 | 16 | 163 | 0.0 | 0.0 | 0.00 | 0.00 | 0.00 | 39 | 1025.2 |
| 20260508112223 | 16 | 205 | 0.0 | 0.0 | 0.00 | 0.00 | 0.00 | 40 | 1025.1 |
| 20260508111218 | 16 | 183 | 0.0 | 0.0 | 0.00 | 0.00 | 0.00 | 40 | 1024.7 |
| 20260508110218 | 16 | 203 | 0.0 | 0.0 | 0.00 | 0.00 | 0.00 | 40 | 1025.0 |
| 20260508105214 | 16 | 192 | 0.0 | 1.6 | 0.00 | 0.00 | 0.00 | 40 | 1024.8 |
| 20260508104214 | 16 | 140 | 4.8 | 8.0 | 0.00 | 0.00 | 0.00 | 40 | 1024.6 |
| 20260508103209 | 16 | 111 | 3.2 | 4.8 | 0.00 | 0.00 | 0.00 | 39 | 1024.6 |
| 20260508102204 | 16 | 123 | 4.8 | 9.7 | 0.00 | 0.00 | 0.00 | 39 | 1024.7 |
| 20260508101204 | 16 | 161 | 1.6 | 8.0 | 0.00 | 0.00 | 0.00 | 39 | 1024.7 |
| 20260508100200 | 17 | 107 | 3.2 | 8.0 | 0.00 | 0.00 | 0.00 | 37 | 1024.3 |
| 20260508095159 | 16 | 204 | 0.0 | 0.0 | 0.00 | 0.00 | 0.00 | 38 | 1024.5 |
| 20260508094158 | 17 | 221 | 0.0 | 0.0 | 0.00 | 0.00 | 0.00 | 37 | 1024.3 |
| 20260508093153 | 17 | 205 | 0.0 | 0.0 | 0.00 | 0.00 | 0.00 | 37 | 1024.5 |
| 20260508092149 | 16 | 193 | 0.0 | 0.0 | 0.00 | 0.00 | 0.00 | 38 | 1024.6 |
| 20260508091149 | 17 | 179 | 0.0 | 0.0 | 0.00 | 0.00 | 0.00 | 38 | 1024.6 |
| 20260508090143 | 17 | 219 | 0.0 | 0.0 | 0.00 | 0.00 | 0.00 | 39 | 1024.7 |
| 20260508085143 | 17 | 245 | 4.8 | 4.8 | 0.00 | 0.00 | 0.00 | 38 | 1024.7 |
| 20260508084142 | 17 | 277 | 4.8 | 8.0 | 0.00 | 0.00 | 0.00 | 38 | 1024.7 |
| 20260508083137 | 17 | 235 | 4.8 | 11.3 | 0.00 | 0.00 | 0.00 | 38 | 1024.7 |
| 20260508082135 | 17 | 276 | 9.7 | 11.3 | 0.00 | 0.00 | 0.00 | 37 | 1024.6 |
| 20260508081135 | 18 | 250 | 3.2 | 8.0 | 0.00 | 0.00 | 0.00 | 37 | 1024.5 |
| 20260508080131 | 18 | 257 | 8.0 | 11.3 | 0.00 | 0.00 | 0.00 | 36 | 1025.0 |
| 20260508075130 | 18 | 258 | 9.7 | 12.9 | 0.00 | 0.00 | 0.00 | 36 | 1024.8 |
| 20260508074124 | 18 | 267 | 6.4 | 11.3 | 0.00 | 0.00 | 0.00 | 36 | 1025.0 |
| 20260508073119 | 18 | 261 | 9.7 | 12.9 | 0.00 | 0.00 | 0.00 | 36 | 1025.2 |
| 20260508072118 | 18 | 256 | 11.3 | 14.5 | 0.00 | 0.00 | 0.00 | 36 | 1025.1 |
| 20260508071114 | 18 | 259 | 9.7 | 12.9 | 0.00 | 0.00 | 0.00 | 36 | 1025.2 |
| 20260508070109 | 18 | 247 | 11.3 | 16.1 | 0.00 | 0.00 | 0.00 | 36 | 1025.3 |
| 20260508065109 | 18 | 263 | 12.9 | 17.7 | 0.00 | 0.00 | 0.00 | 36 | 1025.3 |
| 20260508064105 | 18 | 270 | 8.0 | 14.5 | 0.00 | 0.00 | 0.00 | 36 | 1025.3 |
| 20260508063100 | 18 | 265 | 12.9 | 17.7 | 0.00 | 0.00 | 0.00 | 36 | 1025.5 |
| 20260508062100 | 18 | 268 | 14.5 | 20.9 | 0.00 | 0.00 | 0.00 | 35 | 1025.5 |
| 20260508061054 | 18 | 235 | 14.5 | 17.7 | 0.00 | 0.00 | 0.00 | 36 | 1025.6 |
| 20260508060054 | 18 | 261 | 14.5 | 17.7 | 0.00 | 0.00 | 0.00 | 35 | 1025.6 |
| 20260508055053 | 19 | 247 | 11.3 | 16.1 | 0.00 | 0.00 | 0.00 | 35 | 1026.0 |
| 20260508054053 | 19 | 257 | 12.9 | 16.1 | 0.00 | 0.00 | 0.00 | 34 | 1025.6 |
| 20260508053047 | 19 | 254 | 9.7 | 20.9 | 0.00 | 0.00 | 0.00 | 33 | 1025.9 |
| 20260508052047 | 20 | 270 | 11.3 | 20.9 | 0.00 | 0.00 | 0.00 | 33 | 1025.7 |
| 20260508051044 | 20 | 252 | 14.5 | 22.5 | 0.00 | 0.00 | 0.00 | 32 | 1026.0 |
| 20260508050044 | 20 | 271 | 12.9 | 20.9 | 0.00 | 0.00 | 0.00 | 32 | 1025.7 |
| 20260508045044 | 20 | 248 | 14.5 | 17.7 | 0.00 | 0.00 | 0.00 | 32 | 1025.9 |
| 20260508044042 | 20 | 293 | 16.1 | 22.5 | 0.00 | 0.00 | 0.00 | 31 | 1025.6 |
| 20260508043037 | 20 | 270 | 9.7 | 20.9 | 0.00 | 0.00 | 0.00 | 30 | 1025.2 |
| 20260508042036 | 20 | 247 | 12.9 | 24.1 | 0.00 | 0.00 | 0.00 | 30 | 1025.6 |
| 20260508041035 | 20 | 241 | 9.7 | 22.5 | 0.00 | 0.00 | 0.00 | 29 | 1025.3 |
| 20260508040035 | 20 | 241 | 11.3 | 17.7 | 0.00 | 0.00 | 0.00 | 28 | 1025.1 |